Year,Month,Day,Hour,Minute,Value (Times are PST for temperature in C)
2007,05,23,00,00,11.10
2007,05,23,00,01,11.10
2007,05,23,00,02,11.10
2007,05,23,00,03,11.10
2007,05,23,00,04,11.10
2007,05,23,00,05,11.10
2007,05,23,00,06,11.20
2007,05,23,00,07,11.20
2007,05,23,00,08,11.20
2007,05,23,00,09,11.20
2007,05,23,00,10,11.20
2007,05,23,00,11,11.20
2007,05,23,00,12,11.20
2007,05,23,01,02,10.20
2007,05,23,01,03,10.20
2007,05,23,01,04,10.20
2007,05,23,01,05,10.20
2007,05,23,01,06,10.20
2007,05,23,01,07,10.10
2007,05,23,01,08,10.10
2007,05,23,01,09,10.10
2007,05,23,01,10,10.10
2007,05,23,01,11,10.00
2007,05,23,01,12,10.00
2007,05,23,01,13,9.90
2007,05,23,01,14,9.90
2007,05,23,01,15,9.90
2007,05,23,01,16,9.80
2007,05,23,01,17,9.80
2007,05,23,01,18,9.80
2007,05,23,01,19,9.70
2007,05,23,01,20,9.70
2007,05,23,01,21,9.70
2007,05,23,01,22,9.70
2007,05,23,01,23,9.60
2007,05,23,01,24,9.60
2007,05,23,01,25,9.60
2007,05,23,01,26,9.60
2007,05,23,01,27,9.50
2007,05,23,01,28,9.50
2007,05,23,01,29,9.50
2007,05,23,01,30,9.50
2007,05,23,01,31,9.50
2007,05,23,01,32,9.50
2007,05,23,01,33,9.50
2007,05,23,01,34,9.50
2007,05,23,01,35,9.50
2007,05,23,01,36,9.60
2007,05,23,01,37,9.60
2007,05,23,01,38,9.60
2007,05,23,01,39,9.60
2007,05,23,01,40,9.60
2007,05,23,01,41,9.60
2007,05,23,01,42,9.60
2007,05,23,01,43,9.60
2007,05,23,01,44,9.60
2007,05,23,01,45,9.60
2007,05,23,01,46,9.60
2007,05,23,01,47,9.70
2007,05,23,01,48,9.70
2007,05,23,01,49,9.70
2007,05,23,01,50,9.70
2007,05,23,01,51,9.70
2007,05,23,01,52,9.60
2007,05,23,01,53,9.60
2007,05,23,01,54,9.60
2007,05,23,01,55,9.60
2007,05,23,01,56,9.60
2007,05,23,01,57,9.60
2007,05,23,01,58,9.60
2007,05,23,01,59,9.60
2007,05,23,02,00,9.60
2007,05,23,02,01,9.50
2007,05,23,02,02,9.50
2007,05,23,02,03,9.40
2007,05,23,02,04,9.40
2007,05,23,02,05,9.40
2007,05,23,02,06,9.40
2007,05,23,02,07,9.40
2007,05,23,02,08,9.40
2007,05,23,02,09,9.40
2007,05,23,02,10,9.40
2007,05,23,02,11,9.40
2007,05,23,02,12,9.40
2007,05,23,02,13,9.40
2007,05,23,02,14,9.40
2007,05,23,02,15,9.40
2007,05,23,02,16,9.40
2007,05,23,02,17,9.50
2007,05,23,02,18,9.50
2007,05,23,02,19,9.50
2007,05,23,02,20,9.50
2007,05,23,02,21,9.50
2007,05,23,02,22,9.60
2007,05,23,02,23,9.60
2007,05,23,02,24,9.60
2007,05,23,02,25,9.60
2007,05,23,02,26,9.60
2007,05,23,02,27,9.60
2007,05,23,02,28,9.60
2007,05,23,02,29,9.60
2007,05,23,02,30,9.60
2007,05,23,02,31,9.60
2007,05,23,02,32,9.60
2007,05,23,02,33,9.60
2007,05,23,02,34,9.70
2007,05,23,02,35,9.70
2007,05,23,02,36,9.70
2007,05,23,02,37,9.80
2007,05,23,02,38,9.80
2007,05,23,02,39,9.80
2007,05,23,02,40,9.80
2007,05,23,02,41,9.80
2007,05,23,02,42,9.70
2007,05,23,02,43,9.70
2007,05,23,02,44,9.70
2007,05,23,02,45,9.70
2007,05,23,02,46,9.70
2007,05,23,02,47,9.70
2007,05,23,02,48,9.70
2007,05,23,02,49,9.70
2007,05,23,02,50,9.70
2007,05,23,02,51,9.80
2007,05,23,02,52,9.80
2007,05,23,02,53,9.80
2007,05,23,02,54,9.80
2007,05,23,02,55,9.80
2007,05,23,02,56,9.80
2007,05,23,02,57,9.80
2007,05,23,02,58,9.80
2007,05,23,02,59,9.80
2007,05,23,03,00,9.80
2007,05,23,03,01,9.80
2007,05,23,03,02,9.70
2007,05,23,03,03,9.70
2007,05,23,03,04,9.70
2007,05,23,03,05,9.70
2007,05,23,03,06,9.70
2007,05,23,03,07,9.70
2007,05,23,03,08,9.70
2007,05,23,03,09,9.70
2007,05,23,03,10,9.70
2007,05,23,03,11,9.60
2007,05,23,03,12,9.60
2007,05,23,03,13,9.60
2007,05,23,03,14,9.60
2007,05,23,03,15,9.60
2007,05,23,03,16,9.60
2007,05,23,03,17,9.70
2007,05,23,03,18,9.70
2007,05,23,03,19,9.70
2007,05,23,03,20,9.70
2007,05,23,03,21,9.70
2007,05,23,03,22,9.60
2007,05,23,03,23,9.60
2007,05,23,03,24,9.60
2007,05,23,03,25,9.60
2007,05,23,03,26,9.60
2007,05,23,03,27,9.60
2007,05,23,03,28,9.60
2007,05,23,03,29,9.70
2007,05,23,03,30,9.70
2007,05,23,03,31,9.70
2007,05,23,03,32,9.70
2007,05,23,03,33,9.70
2007,05,23,03,34,9.70
2007,05,23,03,35,9.70
2007,05,23,03,36,9.70
2007,05,23,03,37,9.70
2007,05,23,03,38,9.70
2007,05,23,03,39,9.80
2007,05,23,03,40,9.80
2007,05,23,03,41,9.80
2007,05,23,03,42,9.80
2007,05,23,03,43,9.70
2007,05,23,03,44,9.70
2007,05,23,03,45,9.70
2007,05,23,03,46,9.70
2007,05,23,03,47,9.60
2007,05,23,03,48,9.60
2007,05,23,03,49,9.60
2007,05,23,03,50,9.60
2007,05,23,03,51,9.50
2007,05,23,03,52,9.50
2007,05,23,03,53,9.50
2007,05,23,03,54,9.40
2007,05,23,03,55,9.40
2007,05,23,03,56,9.40
2007,05,23,03,57,9.50
2007,05,23,03,58,9.50
2007,05,23,03,59,9.50
2007,05,23,04,00,9.50
2007,05,23,04,01,9.50
2007,05,23,04,02,9.50
2007,05,23,04,03,9.50
2007,05,23,04,04,9.60
2007,05,23,04,05,9.60
2007,05,23,04,06,9.60
2007,05,23,04,07,9.60
2007,05,23,04,08,9.60
2007,05,23,04,09,9.60
2007,05,23,04,10,9.60
2007,05,23,04,11,9.60
2007,05,23,04,12,9.60
2007,05,23,04,13,9.60
2007,05,23,04,14,9.60
2007,05,23,04,15,9.60
2007,05,23,04,16,9.60
2007,05,23,04,17,9.60
2007,05,23,04,18,9.60
2007,05,23,04,19,9.50
2007,05,23,04,20,9.50
2007,05,23,04,21,9.40
2007,05,23,04,22,9.40
2007,05,23,04,23,9.30
2007,05,23,04,24,9.20
2007,05,23,04,25,9.20
2007,05,23,04,26,9.10
2007,05,23,04,27,9.00
2007,05,23,04,28,9.00
2007,05,23,04,29,8.90
2007,05,23,04,30,8.80
2007,05,23,04,31,8.80
2007,05,23,04,32,8.80
2007,05,23,04,33,8.80
2007,05,23,04,34,8.70
2007,05,23,04,35,8.60
2007,05,23,04,36,8.60
2007,05,23,04,37,8.60
2007,05,23,04,38,8.50
2007,05,23,04,39,8.40
2007,05,23,04,40,8.40
2007,05,23,04,41,8.30
2007,05,23,04,42,8.30
2007,05,23,04,43,8.30
2007,05,23,04,44,8.30
2007,05,23,04,45,8.30
2007,05,23,04,46,8.20
2007,05,23,04,47,8.20
2007,05,23,04,48,8.20
2007,05,23,04,49,8.20
2007,05,23,04,50,8.20
2007,05,23,04,51,8.20
2007,05,23,04,52,8.20
2007,05,23,04,53,8.10
2007,05,23,04,54,8.10
2007,05,23,04,55,8.10
2007,05,23,04,56,8.10
2007,05,23,04,57,8.10
2007,05,23,04,58,8.10
2007,05,23,04,59,8.10
2007,05,23,05,00,8.10
2007,05,23,05,01,8.00
2007,05,23,05,02,8.00
2007,05,23,05,03,8.00
2007,05,23,05,04,8.00
2007,05,23,05,05,8.00
2007,05,23,05,06,8.00
2007,05,23,05,07,8.00
2007,05,23,05,08,8.00
2007,05,23,05,09,7.90
2007,05,23,05,10,7.90
2007,05,23,05,11,7.90
2007,05,23,05,12,7.90
2007,05,23,05,13,7.90
2007,05,23,05,14,7.90
2007,05,23,05,15,7.90
2007,05,23,05,16,7.90
2007,05,23,05,17,7.90
2007,05,23,05,18,7.90
2007,05,23,05,19,7.90
2007,05,23,05,20,7.90
2007,05,23,05,21,7.90
2007,05,23,05,22,7.90
2007,05,23,05,23,7.90
2007,05,23,05,24,7.90
2007,05,23,05,25,7.90
2007,05,23,05,26,7.90
2007,05,23,05,27,7.90
2007,05,23,05,28,7.90
2007,05,23,05,29,8.00
2007,05,23,05,30,8.00
2007,05,23,05,31,8.00
2007,05,23,05,32,8.00
2007,05,23,05,33,8.00
2007,05,23,05,34,8.00
2007,05,23,05,35,8.10
2007,05,23,05,36,8.10
2007,05,23,05,37,8.10
2007,05,23,05,38,8.10
2007,05,23,05,39,8.10
2007,05,23,05,40,8.10
2007,05,23,05,41,8.10
2007,05,23,05,42,8.10
2007,05,23,05,43,8.10
2007,05,23,05,44,8.10
2007,05,23,05,45,8.10
2007,05,23,05,46,8.10
2007,05,23,05,47,8.10
2007,05,23,05,48,8.10
2007,05,23,05,49,8.10
2007,05,23,05,50,8.10
2007,05,23,05,51,8.10
2007,05,23,05,52,8.10
2007,05,23,05,53,8.10
2007,05,23,05,54,8.10
2007,05,23,05,55,8.10
2007,05,23,05,56,8.20
2007,05,23,05,57,8.20
2007,05,23,05,58,8.20
2007,05,23,05,59,8.20
2007,05,23,06,00,8.20
2007,05,23,06,01,8.20
2007,05,23,06,02,8.20
2007,05,23,06,03,8.20
2007,05,23,06,04,8.20
2007,05,23,06,05,8.20
2007,05,23,06,06,8.20
2007,05,23,06,07,8.30
2007,05,23,06,08,8.30
2007,05,23,06,09,8.30
2007,05,23,06,10,8.30
2007,05,23,06,11,8.30
2007,05,23,06,12,8.30
2007,05,23,06,13,8.30
2007,05,23,06,14,8.30
2007,05,23,06,15,8.30
2007,05,23,06,16,8.30
2007,05,23,06,17,8.30
2007,05,23,06,18,8.30
2007,05,23,06,19,8.40
2007,05,23,06,20,8.40
2007,05,23,06,21,8.40
2007,05,23,06,22,8.40
2007,05,23,06,23,8.40
2007,05,23,06,24,8.40
2007,05,23,06,25,8.40
2007,05,23,06,26,8.40
2007,05,23,06,27,8.40
2007,05,23,06,28,8.40
2007,05,23,06,29,8.40
2007,05,23,06,30,8.40
2007,05,23,06,31,8.40
2007,05,23,06,32,8.40
2007,05,23,06,33,8.40
2007,05,23,06,34,8.40
2007,05,23,06,35,8.40
2007,05,23,06,36,8.50
2007,05,23,06,37,8.50
2007,05,23,06,38,8.50
2007,05,23,06,39,8.50
2007,05,23,06,40,8.50
2007,05,23,06,41,8.50
2007,05,23,06,42,8.50
2007,05,23,06,43,8.50
2007,05,23,06,44,8.50
2007,05,23,06,45,8.50
2007,05,23,06,46,8.50
2007,05,23,06,47,8.50
2007,05,23,06,48,8.50
2007,05,23,06,49,8.50
2007,05,23,06,50,8.50
2007,05,23,06,51,8.50
2007,05,23,06,52,8.50
2007,05,23,06,53,8.50
2007,05,23,06,54,8.50
2007,05,23,06,55,8.50
2007,05,23,06,56,8.50
2007,05,23,06,57,8.50
2007,05,23,06,58,8.50
2007,05,23,06,59,8.50
2007,05,23,07,00,8.50
2007,05,23,07,01,8.50
2007,05,23,07,02,8.50
2007,05,23,07,03,8.50
2007,05,23,07,04,8.50
2007,05,23,07,05,8.50
2007,05,23,07,06,8.50
2007,05,23,07,07,8.60
2007,05,23,07,08,8.60
2007,05,23,07,09,8.60
2007,05,23,07,10,8.60
2007,05,23,07,11,8.60
2007,05,23,07,12,8.60
2007,05,23,07,13,8.60
2007,05,23,07,14,8.60
2007,05,23,07,15,8.60
2007,05,23,07,16,8.60
2007,05,23,07,17,8.60
2007,05,23,07,18,8.70
2007,05,23,07,19,8.70
2007,05,23,07,20,8.70
2007,05,23,07,21,8.70
2007,05,23,07,22,8.70
2007,05,23,07,23,8.70
2007,05,23,07,24,8.70
2007,05,23,07,25,8.80
2007,05,23,07,26,8.80
2007,05,23,07,27,8.80
2007,05,23,07,28,8.80
2007,05,23,07,29,8.80
2007,05,23,07,30,8.80
2007,05,23,07,31,8.90
2007,05,23,07,32,8.90
2007,05,23,07,33,8.90
2007,05,23,07,34,8.90
2007,05,23,07,35,9.00
2007,05,23,07,36,9.00
2007,05,23,07,37,9.10
2007,05,23,07,38,9.10
2007,05,23,07,39,9.20
2007,05,23,07,40,9.20
2007,05,23,07,41,9.20
2007,05,23,07,42,9.20
2007,05,23,07,43,9.30
2007,05,23,07,44,9.30
2007,05,23,07,45,9.40
2007,05,23,07,46,9.40
2007,05,23,07,47,9.40
2007,05,23,07,48,9.50
2007,05,23,07,49,9.50
2007,05,23,07,50,9.60
2007,05,23,07,51,9.60
2007,05,23,07,52,9.60
2007,05,23,07,53,9.70
2007,05,23,07,54,9.70
2007,05,23,07,55,9.80
2007,05,23,07,56,9.80
2007,05,23,07,57,9.80
2007,05,23,07,58,9.80
2007,05,23,07,59,9.90
2007,05,23,08,00,9.90
2007,05,23,08,01,9.90
2007,05,23,08,02,10.00
2007,05,23,08,03,10.00
2007,05,23,08,04,10.10
2007,05,23,08,05,10.10
2007,05,23,08,06,10.10
2007,05,23,08,07,10.10
2007,05,23,08,08,10.20
2007,05,23,08,09,10.20
2007,05,23,08,10,10.20
2007,05,23,08,11,10.30
2007,05,23,08,12,10.30
2007,05,23,08,13,10.30
2007,05,23,08,14,10.40
2007,05,23,08,15,10.40
2007,05,23,08,16,10.40
2007,05,23,08,17,10.40
2007,05,23,08,18,10.50
2007,05,23,08,19,10.50
2007,05,23,08,20,10.50
2007,05,23,08,21,10.50
2007,05,23,08,22,10.60
2007,05,23,08,23,10.60
2007,05,23,08,24,10.60
2007,05,23,08,25,10.60
2007,05,23,08,26,10.60
2007,05,23,08,27,10.60
2007,05,23,08,28,10.60
2007,05,23,08,29,10.60
2007,05,23,08,30,10.50
2007,05,23,08,31,10.50
2007,05,23,08,32,10.50
2007,05,23,08,33,10.50
2007,05,23,08,34,10.40
2007,05,23,08,35,10.40
2007,05,23,08,36,10.40
2007,05,23,08,37,10.30
2007,05,23,08,38,10.30
2007,05,23,08,39,10.30
2007,05,23,08,40,10.30
2007,05,23,08,41,10.30
2007,05,23,08,42,10.30
2007,05,23,08,43,10.30
2007,05,23,08,44,10.30
2007,05,23,08,45,10.30
2007,05,23,08,46,10.30
2007,05,23,08,47,10.30
2007,05,23,08,48,10.30
2007,05,23,08,49,10.30
2007,05,23,08,50,10.30
2007,05,23,08,51,10.20
2007,05,23,08,52,10.20
2007,05,23,08,53,10.20
2007,05,23,08,54,10.20
2007,05,23,08,55,10.10
2007,05,23,08,56,10.10
2007,05,23,08,57,10.10
2007,05,23,08,58,10.10
2007,05,23,08,59,10.20
2007,05,23,09,00,10.20
2007,05,23,09,01,10.10
2007,05,23,09,02,10.10
2007,05,23,09,03,10.10
2007,05,23,09,04,10.20
2007,05,23,09,05,10.20
2007,05,23,09,06,10.20
2007,05,23,09,07,10.30
2007,05,23,09,08,10.30
2007,05,23,09,09,10.30
2007,05,23,09,10,10.30
2007,05,23,09,11,10.30
2007,05,23,09,12,10.30
2007,05,23,09,13,10.30
2007,05,23,09,14,10.40
2007,05,23,09,15,10.40
2007,05,23,09,16,10.50
2007,05,23,09,17,10.60
2007,05,23,09,18,10.60
2007,05,23,09,19,10.70
2007,05,23,09,20,10.70
2007,05,23,09,21,10.70
2007,05,23,09,22,10.70
2007,05,23,09,23,10.70
2007,05,23,09,24,10.70
2007,05,23,09,25,10.60
2007,05,23,09,26,10.60
2007,05,23,09,27,10.60
2007,05,23,09,28,10.60
2007,05,23,09,29,10.70
2007,05,23,09,30,10.70
2007,05,23,09,31,10.70
2007,05,23,09,32,10.70
2007,05,23,09,33,10.80
2007,05,23,09,34,10.80
2007,05,23,09,35,10.80
2007,05,23,09,36,10.80
2007,05,23,09,37,10.80
2007,05,23,09,38,10.80
2007,05,23,09,39,10.80
2007,05,23,09,40,10.80
2007,05,23,09,41,10.80
2007,05,23,09,42,10.80
2007,05,23,09,43,10.80
2007,05,23,09,44,10.80
2007,05,23,09,45,10.80
2007,05,23,09,46,10.90
2007,05,23,09,47,10.90
2007,05,23,09,48,10.90
2007,05,23,09,49,10.90
2007,05,23,09,50,10.90
2007,05,23,09,51,11.00
2007,05,23,09,52,11.00
2007,05,23,09,53,11.00
2007,05,23,09,54,11.10
2007,05,23,09,55,11.10
2007,05,23,09,56,11.20
2007,05,23,09,57,11.20
2007,05,23,09,58,11.20
2007,05,23,09,59,11.20
2007,05,23,10,00,11.20
2007,05,23,10,01,11.10
2007,05,23,10,02,11.10
2007,05,23,10,03,11.10
2007,05,23,10,04,11.10
2007,05,23,10,05,11.10
2007,05,23,10,06,11.10
2007,05,23,10,07,11.10
2007,05,23,10,08,11.00
2007,05,23,10,09,11.00
2007,05,23,10,10,11.00
2007,05,23,10,11,11.00
2007,05,23,10,12,11.00
2007,05,23,10,13,11.10
2007,05,23,10,14,11.20
2007,05,23,10,15,11.30
2007,05,23,10,16,11.30
2007,05,23,10,17,11.30
2007,05,23,10,18,11.40
2007,05,23,10,19,11.50
2007,05,23,10,20,11.50
2007,05,23,10,21,11.50
2007,05,23,10,22,11.50
2007,05,23,10,23,11.50
2007,05,23,10,24,11.50
2007,05,23,10,25,11.50
2007,05,23,10,26,11.50
2007,05,23,10,27,11.50
2007,05,23,10,28,11.40
2007,05,23,10,29,11.30
2007,05,23,10,30,11.30
2007,05,23,10,31,11.30
2007,05,23,10,32,11.30
2007,05,23,10,33,11.30
2007,05,23,10,34,11.30
2007,05,23,10,35,11.40
2007,05,23,10,36,11.50
2007,05,23,10,37,11.50
2007,05,23,10,38,11.50
2007,05,23,10,39,11.40
2007,05,23,10,40,11.30
2007,05,23,10,41,11.20
2007,05,23,10,42,11.20
2007,05,23,10,43,11.20
2007,05,23,10,44,11.20
2007,05,23,10,45,11.20
2007,05,23,10,46,11.20
2007,05,23,10,47,11.20
2007,05,23,10,48,11.20
2007,05,23,10,49,11.20
2007,05,23,10,50,11.20
2007,05,23,10,51,11.20
2007,05,23,10,52,11.20
2007,05,23,10,53,11.20
2007,05,23,10,54,11.10
2007,05,23,10,55,11.00
2007,05,23,10,56,11.00
2007,05,23,10,57,10.90
2007,05,23,10,58,10.90
2007,05,23,10,59,11.00
2007,05,23,11,00,11.00
2007,05,23,11,01,11.00
2007,05,23,11,02,11.10
2007,05,23,11,03,11.20
2007,05,23,11,04,11.20
2007,05,23,11,05,11.20
2007,05,23,11,06,11.20
2007,05,23,11,07,11.10
2007,05,23,11,08,11.00
2007,05,23,11,09,10.90
2007,05,23,11,10,10.90
2007,05,23,11,11,10.90
2007,05,23,11,12,10.90
2007,05,23,11,13,10.90
2007,05,23,11,14,10.80
2007,05,23,11,15,10.90
2007,05,23,11,16,11.00
2007,05,23,11,17,11.10
2007,05,23,11,18,11.10
2007,05,23,11,19,11.10
2007,05,23,11,20,11.10
2007,05,23,11,21,11.10
2007,05,23,11,22,11.10
2007,05,23,11,23,11.10
2007,05,23,11,24,11.20
2007,05,23,11,25,11.30
2007,05,23,11,26,11.40
2007,05,23,11,27,11.40
2007,05,23,11,28,11.50
2007,05,23,11,29,11.50
2007,05,23,11,30,11.50
2007,05,23,11,31,11.40
2007,05,23,11,32,11.40
2007,05,23,11,33,11.30
2007,05,23,11,34,11.20
2007,05,23,11,35,11.20
2007,05,23,11,36,11.10
2007,05,23,11,37,11.10
2007,05,23,11,38,11.00
2007,05,23,11,39,11.10
2007,05,23,11,40,11.20
2007,05,23,11,41,11.20
2007,05,23,11,42,11.30
2007,05,23,11,43,11.30
2007,05,23,11,44,11.30
2007,05,23,11,45,11.20
2007,05,23,11,46,11.20
2007,05,23,11,47,11.30
2007,05,23,11,48,11.30
2007,05,23,11,49,11.40
2007,05,23,11,50,11.40
2007,05,23,11,51,11.40
2007,05,23,11,52,11.30
2007,05,23,11,53,11.30
2007,05,23,11,54,11.30
2007,05,23,11,55,11.30
2007,05,23,11,56,11.20
2007,05,23,11,57,11.20
2007,05,23,11,58,11.10
2007,05,23,11,59,11.10
2007,05,23,12,00,11.10
2007,05,23,12,01,11.00
2007,05,23,12,02,11.00
2007,05,23,12,03,11.00
2007,05,23,12,04,11.10
2007,05,23,12,05,11.30
2007,05,23,12,06,11.40
2007,05,23,12,07,11.50
2007,05,23,12,08,11.60
2007,05,23,12,09,11.70
2007,05,23,12,10,11.70
2007,05,23,12,11,11.70
2007,05,23,12,12,11.70
2007,05,23,12,13,11.70
2007,05,23,12,14,11.80
2007,05,23,12,15,11.80
2007,05,23,12,16,11.80
2007,05,23,12,17,11.70
2007,05,23,12,18,11.70
2007,05,23,12,19,11.70
2007,05,23,12,20,11.70
2007,05,23,12,21,11.70
2007,05,23,12,22,11.70
2007,05,23,12,23,11.80
2007,05,23,12,24,11.80
2007,05,23,12,25,11.70
2007,05,23,12,26,11.60
2007,05,23,12,27,11.50
2007,05,23,12,28,11.40
2007,05,23,12,29,11.50
2007,05,23,12,30,11.50
2007,05,23,12,31,11.40
2007,05,23,12,32,11.50
2007,05,23,12,33,11.50
2007,05,23,12,34,11.60
2007,05,23,12,35,11.60
2007,05,23,12,36,11.70
2007,05,23,12,37,11.80
2007,05,23,12,38,11.80
2007,05,23,12,39,11.90
2007,05,23,12,40,12.00
2007,05,23,12,41,12.10
2007,05,23,12,42,12.10
2007,05,23,12,43,12.00
2007,05,23,12,44,11.90
2007,05,23,12,45,11.90
2007,05,23,12,46,11.90
2007,05,23,12,47,11.90
2007,05,23,12,48,11.90
2007,05,23,12,49,12.00
2007,05,23,12,50,12.00
2007,05,23,12,51,12.10
2007,05,23,12,52,12.20
2007,05,23,12,53,12.20
2007,05,23,12,54,12.30
2007,05,23,12,55,12.30
2007,05,23,12,56,12.30
2007,05,23,12,57,12.40
2007,05,23,12,58,12.40
2007,05,23,12,59,12.50
2007,05,23,13,00,12.60
2007,05,23,13,01,12.70
2007,05,23,13,02,12.70
2007,05,23,13,03,12.80
2007,05,23,13,04,12.80
2007,05,23,13,05,12.80
2007,05,23,13,06,12.80
2007,05,23,13,07,12.90
2007,05,23,13,08,12.90
2007,05,23,13,09,13.00
2007,05,23,13,10,12.90
2007,05,23,13,11,12.90
2007,05,23,13,12,12.80
2007,05,23,13,13,12.80
2007,05,23,13,14,12.80
2007,05,23,13,15,12.80
2007,05,23,13,16,12.80
2007,05,23,13,17,12.80
2007,05,23,13,18,12.80
2007,05,23,13,19,12.90
2007,05,23,13,20,12.90
2007,05,23,13,21,13.00
2007,05,23,13,22,12.90
2007,05,23,13,23,13.00
2007,05,23,13,24,13.10
2007,05,23,13,25,13.20
2007,05,23,13,26,13.20
2007,05,23,13,27,13.20
2007,05,23,13,28,13.20
2007,05,23,13,29,13.30
2007,05,23,13,30,13.40
2007,05,23,13,31,13.40
2007,05,23,13,32,13.40
2007,05,23,13,33,13.40
2007,05,23,13,34,13.40
2007,05,23,13,35,13.40
2007,05,23,13,36,13.40
2007,05,23,13,37,13.50
2007,05,23,13,38,13.60
2007,05,23,13,39,13.70
2007,05,23,13,40,13.80
2007,05,23,13,41,13.80
2007,05,23,13,42,13.80
2007,05,23,13,43,13.80
2007,05,23,13,44,13.80
2007,05,23,13,45,13.80
2007,05,23,13,46,13.80
2007,05,23,13,47,13.80
2007,05,23,13,48,13.80
2007,05,23,13,49,13.90
2007,05,23,13,50,13.90
2007,05,23,13,51,14.00
2007,05,23,13,52,13.80
2007,05,23,13,53,13.80
2007,05,23,13,54,13.70
2007,05,23,13,55,13.80
2007,05,23,13,56,13.90
2007,05,23,13,57,13.90
2007,05,23,13,58,13.90
2007,05,23,13,59,13.90
2007,05,23,14,00,13.90
2007,05,23,14,01,14.00
2007,05,23,14,02,13.90
2007,05,23,14,03,13.90
2007,05,23,14,04,13.90
2007,05,23,14,05,13.90
2007,05,23,14,06,14.00
2007,05,23,14,07,14.00
2007,05,23,14,08,14.10
2007,05,23,14,09,14.10
2007,05,23,14,10,14.10
2007,05,23,14,11,13.90
2007,05,23,14,12,13.80
2007,05,23,14,13,13.60
2007,05,23,14,14,13.60
2007,05,23,14,15,13.50
2007,05,23,14,16,13.50
2007,05,23,14,17,13.50
2007,05,23,14,18,13.50
2007,05,23,14,19,13.50
2007,05,23,14,20,13.50
2007,05,23,14,21,13.50
2007,05,23,14,22,13.50
2007,05,23,14,23,13.50
2007,05,23,14,24,13.60
2007,05,23,14,25,13.60
2007,05,23,14,26,13.60
2007,05,23,14,27,13.60
2007,05,23,14,28,13.50
2007,05,23,14,29,13.50
2007,05,23,14,30,13.60
2007,05,23,14,31,13.70
2007,05,23,14,32,13.70
2007,05,23,14,33,13.80
2007,05,23,14,34,13.90
2007,05,23,14,35,14.10
2007,05,23,14,36,14.20
2007,05,23,14,37,14.20
2007,05,23,14,38,14.30
2007,05,23,14,39,14.40
2007,05,23,14,40,14.40
2007,05,23,14,41,14.40
2007,05,23,14,42,14.50
2007,05,23,14,43,14.50
2007,05,23,14,44,14.60
2007,05,23,14,45,14.60
2007,05,23,14,46,14.60
2007,05,23,14,47,14.70
2007,05,23,14,48,14.70
2007,05,23,14,49,14.80
2007,05,23,14,50,14.80
2007,05,23,14,51,14.80
2007,05,23,14,52,14.90
2007,05,23,14,53,15.00
2007,05,23,14,54,15.00
2007,05,23,14,55,15.00
2007,05,23,14,56,15.00
2007,05,23,14,57,15.10
2007,05,23,14,58,15.20
2007,05,23,14,59,15.30
2007,05,23,15,00,15.40
2007,05,23,15,01,15.60
2007,05,23,15,02,15.80
2007,05,23,15,03,16.00
2007,05,23,15,04,16.20
2007,05,23,15,05,16.30
2007,05,23,15,06,16.30
2007,05,23,15,07,16.40
2007,05,23,15,08,16.40
2007,05,23,15,09,16.50
2007,05,23,15,10,16.50
2007,05,23,15,11,16.60
2007,05,23,15,12,16.80
2007,05,23,15,13,16.90
2007,05,23,15,14,17.00
2007,05,23,15,15,17.10
2007,05,23,15,16,17.20
2007,05,23,15,17,17.20
2007,05,23,15,18,17.30
2007,05,23,15,19,17.30
2007,05,23,15,20,17.30
2007,05,23,15,21,17.20
2007,05,23,15,22,17.20
2007,05,23,15,23,17.10
2007,05,23,15,24,17.10
2007,05,23,15,25,17.10
2007,05,23,15,26,17.10
2007,05,23,15,27,17.10
2007,05,23,15,28,17.20
2007,05,23,15,29,17.30
2007,05,23,15,30,17.40
2007,05,23,15,31,17.40
2007,05,23,15,32,17.50
2007,05,23,15,33,17.50
2007,05,23,15,34,17.50
2007,05,23,15,35,17.60
2007,05,23,15,36,17.60
2007,05,23,15,37,17.60
2007,05,23,15,38,17.60
2007,05,23,15,39,17.60
2007,05,23,15,40,17.60
2007,05,23,15,41,17.60
2007,05,23,15,42,17.70
2007,05,23,15,43,17.70
2007,05,23,15,44,17.80
2007,05,23,15,45,17.90
2007,05,23,15,46,18.00
2007,05,23,15,47,17.90
2007,05,23,15,48,17.90
2007,05,23,15,49,18.00
2007,05,23,15,50,18.00
2007,05,23,15,51,18.10
2007,05,23,15,52,18.10
2007,05,23,15,53,18.20
2007,05,23,15,54,18.20
2007,05,23,15,55,18.10
2007,05,23,15,56,18.10
2007,05,23,15,57,18.10
2007,05,23,15,58,18.00
2007,05,23,15,59,18.00
2007,05,23,16,00,18.00
2007,05,23,16,01,18.00
2007,05,23,16,02,17.90
2007,05,23,16,03,17.90
2007,05,23,16,04,17.90
2007,05,23,16,05,17.80
2007,05,23,16,06,17.70
2007,05,23,16,07,17.70
2007,05,23,16,08,17.60
2007,05,23,16,09,17.50
2007,05,23,16,10,17.40
2007,05,23,16,11,17.40
2007,05,23,16,12,17.30
2007,05,23,16,13,17.30
2007,05,23,16,14,17.30
2007,05,23,16,15,17.20
2007,05,23,16,16,17.10
2007,05,23,16,17,17.10
2007,05,23,16,18,17.10
2007,05,23,16,19,17.10
2007,05,23,16,20,17.10
2007,05,23,16,21,17.20
2007,05,23,16,22,17.20
2007,05,23,16,23,17.20
2007,05,23,16,24,17.10
2007,05,23,16,25,17.10
2007,05,23,16,26,17.00
2007,05,23,16,27,16.90
2007,05,23,16,28,16.90
2007,05,23,16,29,16.70
2007,05,23,16,30,16.70
2007,05,23,16,31,16.70
2007,05,23,16,32,16.60
2007,05,23,16,33,16.60
2007,05,23,16,34,16.60
2007,05,23,16,35,16.60
2007,05,23,16,36,16.60
2007,05,23,16,37,16.60
2007,05,23,16,38,16.70
2007,05,23,16,39,16.80
2007,05,23,16,40,16.90
2007,05,23,16,41,16.90
2007,05,23,16,42,17.00
2007,05,23,16,43,17.10
2007,05,23,16,44,17.20
2007,05,23,16,45,17.30
2007,05,23,16,46,17.30
2007,05,23,16,47,17.30
2007,05,23,16,48,17.30
2007,05,23,16,49,17.20
2007,05,23,16,50,17.10
2007,05,23,16,51,17.10
2007,05,23,16,52,17.20
2007,05,23,16,53,17.20
2007,05,23,16,54,17.20
2007,05,23,16,55,17.20
2007,05,23,16,56,17.20
2007,05,23,16,57,17.30
2007,05,23,16,58,17.20
2007,05,23,16,59,17.20
2007,05,23,17,00,17.10
2007,05,23,17,01,17.10
2007,05,23,17,02,17.10
2007,05,23,17,03,17.10
2007,05,23,17,04,17.10
2007,05,23,17,05,17.20
2007,05,23,17,06,17.20
2007,05,23,17,07,17.20
2007,05,23,17,08,17.30
2007,05,23,17,09,17.40
2007,05,23,17,10,17.40
2007,05,23,17,11,17.50
2007,05,23,17,12,17.60
2007,05,23,17,13,17.60
2007,05,23,17,14,17.50
2007,05,23,17,15,17.50
2007,05,23,17,16,17.50
2007,05,23,17,17,17.60
2007,05,23,17,18,17.70
2007,05,23,17,19,17.80
2007,05,23,17,20,17.90
2007,05,23,17,21,17.90
2007,05,23,17,22,17.90
2007,05,23,17,23,17.90
2007,05,23,17,24,18.00
2007,05,23,17,25,17.90
2007,05,23,17,26,17.90
2007,05,23,17,27,17.80
2007,05,23,17,28,17.80
2007,05,23,17,29,17.80
2007,05,23,17,30,17.80
2007,05,23,17,31,17.70
2007,05,23,17,32,17.60
2007,05,23,17,33,17.60
2007,05,23,17,34,17.60
2007,05,23,17,35,17.60
2007,05,23,17,36,17.60
2007,05,23,17,37,17.60
2007,05,23,17,38,17.70
2007,05,23,17,39,17.70
2007,05,23,17,40,17.70
2007,05,23,17,41,17.70
2007,05,23,17,42,17.70
2007,05,23,17,43,17.70
2007,05,23,17,44,17.70
2007,05,23,17,45,17.70
2007,05,23,17,46,17.80
2007,05,23,17,47,17.80
2007,05,23,17,48,17.80
2007,05,23,17,49,17.80
2007,05,23,17,50,17.80
2007,05,23,17,51,17.80
2007,05,23,17,52,17.90
2007,05,23,17,53,18.00
2007,05,23,17,54,18.10
2007,05,23,17,55,18.10
2007,05,23,17,56,18.20
2007,05,23,17,57,18.20
2007,05,23,17,58,18.20
2007,05,23,17,59,18.20
2007,05,23,18,00,18.20
2007,05,23,18,01,18.10
2007,05,23,18,02,18.10
2007,05,23,18,03,18.00
2007,05,23,18,04,18.00
2007,05,23,18,05,18.00
2007,05,23,18,06,18.00
2007,05,23,18,07,18.00
2007,05,23,18,08,18.10
2007,05,23,18,09,18.10
2007,05,23,18,10,18.20
2007,05,23,18,11,18.20
2007,05,23,18,12,18.20
2007,05,23,18,13,18.30
2007,05,23,18,14,18.40
2007,05,23,18,15,18.40
2007,05,23,18,16,18.50
2007,05,23,18,17,18.50
2007,05,23,18,18,18.50
2007,05,23,18,19,18.50
2007,05,23,18,20,18.40
2007,05,23,18,21,18.30
2007,05,23,18,22,18.30
2007,05,23,18,23,18.20
2007,05,23,18,24,18.10
2007,05,23,18,25,18.10
2007,05,23,18,26,18.00